This demonstration page uses our WeatherBlox Daily Observations layout. Learn more.

Left ArrowRight Arrow

44.8408, -93.29828

Hourly Observations for April 30, 2022

Temp ( °F °C ) Dew Point ( °F °C ) Humidity (%) Winds ( mph kmh ) Pressure ( in mb ) Visibility ( mi km ) Precip ( " mm )
12:48 am 00:48 Cloudy with Nearby Thunderstorms 52 11 46 8 82 82 ESE 18 30 29.77 1008 3 5 0.01 0.25
12:53 am 00:53 Cloudy with Nearby Thunderstorms 52 11.1 46 7.8 80 80 ESE 18 30 29.76 1008 5 8 0.05 1.27
1:09 am 01:09 Cloudy with Nearby Thunderstorms 51 10.6 46 7.8 83 83 ESE 16 26 29.76 1008 6 10 0.01 0.25
1:16 am 01:16 Cloudy with Rain 51 10.6 46 7.8 83 83 ESE 16 26 29.75 1007 4 6 0.02 0.51
1:25 am 01:25 Cloudy with Heavy Rain 51 10.6 46 7.8 83 83 ESE 21 33 29.74 1007 3 5 0.05 1.27
1:35 am 01:35 Windy with Storms Likely 50 10 47 8.3 89 89 E 20 31 29.73 1007 7 11 0.10 2.54
1:50 am 01:50 Cloudy with Nearby Thunderstorms 50 10 46 8 88 88 E 18 30 29.72 1006 10 16 0.10 2.54
1:53 am 01:53 Cloudy with Nearby Thunderstorms 50 10 46 7.8 86 86 E 15 24 29.71 1006 10 16 0.10 2.54
2:07 am 02:07 Cloudy 50 10 46 7.8 86 86 E 17 28 29.71 1006 10 16 0.00 0.00
2:53 am 02:53 Cloudy 50 10 45 7.2 83 83 E 20 31 29.68 1005 10 16 0.00 0.00
3:53 am 03:53 Cloudy with Light Rain 50 10 45 7.2 83 83 E 20 31 29.65 1004 10 16 0.00 0.00
4:08 am 04:08 Cloudy with Light Rain 51 10.6 46 7.8 83 83 ESE 15 24 29.66 1004 10 16 0.01 0.25
4:53 am 04:53 Cloudy 51 10.6 46 7.8 83 83 E 21 33 29.63 1004 10 16 0.01 0.25
5:53 am 05:53 Cloudy 50 10 46 7.8 86 86 E 17 28 29.60 1002 10 16 0.00 0.00
6:37 am 06:37 Cloudy 51 10.6 46 7.8 83 83 ESE 24 39 29.60 1002 10 16 0.00 0.00
6:53 am 06:53 Cloudy with Light Rain 51 10.6 46 7.8 83 83 SE 15 24 29.64 1004 9 14 0.00 0.00
7:24 am 07:24 Cloudy with Rain 50 10 46 7.8 86 86 E 14 22 29.63 1003 2 3 0.08 2.03
7:49 am 07:49 Cloudy with Rain 50 10 46 8 88 88 E 14 22 29.62 1003 2 3 0.15 3.81
7:53 am 07:53 Cloudy with Rain 50 10 47 8.3 89 89 ESE 13 20 29.62 1003 2 3 0.17 4.32
8:07 am 08:07 Cloudy with Rain 49 9.4 47 8.3 93 93 ESE 13 20 29.63 1003 2 3 0.08 2.03
8:36 am 08:36 Cloudy with Rain 49 9.4 47 8.3 93 93 E 10 17 29.63 1003 2 3 0.16 4.06
8:53 am 08:53 Cloudy with Heavy Rain 49 9.4 47 8.3 93 93 ESE 13 20 29.62 1003 2 3 0.23 5.84
9:05 am 09:05 Cloudy with Rain 49 9.4 47 8.3 93 93 ESE 16 26 29.62 1003 2 3 0.07 1.78
9:18 am 09:18 Cloudy with Light Rain 49 9.4 47 8.3 93 93 ESE 14 22 29.62 1003 3 5 0.09 2.29
9:32 am 09:32 Cloudy with Light Rain 49 9.4 47 8.3 93 93 E 14 22 29.62 1003 3 5 0.11 2.79
9:38 am 09:38 Cloudy with Rain 49 9.4 47 8.3 93 93 ESE 12 19 29.61 1003 3 4 0.12 3.05
9:45 am 09:45 Cloudy with Light Rain 49 9.4 47 8.3 93 93 ESE 14 22 29.61 1003 5 8 0.14 3.56
9:53 am 09:53 Cloudy with Light Rain 49 9.4 47 8.3 93 93 E 12 19 29.61 1003 8 13 0.14 3.56
10:37 am 10:37 Cloudy 50 10 47 8.3 89 89 E 17 28 29.58 1002 9 14 0.00 0.00
10:53 am 10:53 Cloudy 50 10 46 7.8 86 86 E 20 31 29.56 1001 10 16 0.00 0.00
11:19 am 11:19 Cloudy 50 10 46 7.8 86 86 E 15 24 29.56 1001 10 16 0.00 0.00
11:53 am 11:53 Cloudy 51 10.6 47 8.3 86 86 ESE 17 28 29.56 1001 10 16 0.00 0.00
12:53 pm 12:53 Cloudy 51 10.6 46 7.8 83 83 ESE 14 22 29.56 1001 10 16 0.00 0.00
1:14 pm 13:14 Cloudy with Light Rain 50 10 47 8.3 89 89 E 13 20 29.56 1001 3 4 0.00 0.00
1:53 pm 13:53 Cloudy with Mist and Fog 50 10 47 8.3 89 89 E 12 19 29.54 1000 2 3 0.01 0.25
2:00 pm 14:00 Cloudy with Mist and Fog 50 10 48 8.9 93 93 E 14 22 29.54 1000 2 3 0.00 0.00
2:07 pm 14:07 Cloudy 50 10 48 8.9 93 93 E 16 26 29.53 1000 7 11 0.00 0.00
2:22 pm 14:22 Cloudy 50 10 48 8.9 93 93 E 16 26 29.53 1000 8 13 0.00 0.00
2:53 pm 14:53 Cloudy 51 10.6 48 8.9 89 89 E 13 20 29.52 1000 9 14 0.00 0.00
3:37 pm 15:37 Cloudy 53 11.7 49 9.4 86 86 E 16 26 29.49 999 10 16 0.00 0.00
3:53 pm 15:53 Cloudy 53 11.7 48 8.9 83 83 E 18 30 29.49 999 10 16 0.00 0.00
4:53 pm 16:53 Cloudy 53 11.7 47 8.3 80 80 ENE 12 19 29.49 999 8 13 0.00 0.00
5:17 pm 17:17 Cloudy 52 11.1 47 8.3 83 83 E 17 28 29.49 999 8 13 0.00 0.00
5:53 pm 17:53 Cloudy with Light Rain 51 10.6 47 8.3 86 86 ENE 13 20 29.49 999 5 8 0.00 0.00
6:53 pm 18:53 Cloudy with Light Rain 50 10 47 8.3 89 89 E 7 11 29.49 999 4 6 0.07 1.78
7:53 pm 19:53 Cloudy with Light Rain 49 9.4 47 8.3 93 93 E 10 17 29.49 999 4 6 0.09 2.29
8:53 pm 20:53 Cloudy with Light Rain 49 9.4 47 8.3 93 93 E 12 19 29.49 999 8 13 0.06 1.52
9:13 pm 21:13 Cloudy 49 9.4 47 8.3 93 93 E 13 20 29.49 999 8 13 0.01 0.25
9:53 pm 21:53 Cloudy with Light Rain 48 8.9 46 7.8 93 93 E 12 19 29.49 999 6 10 0.01 0.25
10:09 pm 22:09 Cloudy with Light Rain 48 8.9 46 7.8 93 93 E 13 20 29.50 999 4 6 0.00 0.00
10:42 pm 22:42 Cloudy with Light Rain 48 8.9 46 7.8 93 93 E 10 17 29.50 999 5 8 0.00 0.00
10:53 pm 22:53 Cloudy with Light Rain 48 8.9 46 7.8 93 93 E 10 17 29.49 999 5 8 0.00 0.00
11:27 pm 23:27 Cloudy with Drizzle 48 8.9 46 7.8 93 93 E 8 13 29.49 999 10 16 0.01 0.25
11:53 pm 23:53 Cloudy with Drizzle 47 8.3 46 7.8 97 97 ENE 8 13 29.49 999 10 16 0.01 0.25

Powered by AerisWeather